Header for Extended Forecast Station List Page

Search by: ID | Name | Date | Parm | Value | Avg | % Avg
Sort by: ID | Name | Date | Parm | Value | Avg | % Avg

Enter search or view all records.

Click on id for station plot
#IDNameDateParmValueAvg% Avg
0LYDM8KOOTENAI-LIBBY DAM05-13-2024INFLOW (KAF)4097479685
1LEOI1KOOTENAI-AT LEONIA05-13-2024DISCHARGE (KAF)3386398585
2BFEI1KOOTENAI-AT BONNERS FERRY05-13-2024STAGE (FT)MMM
3FCFM8NF FLATHEAD-NEAR COLUMBIA FALLS05-13-2024DISCHARGE (KAF)883121673
4WGCM8MF FLATHEAD-NEAR WEST GLACIER05-13-2024DISCHARGE (KAF)935115281
5HHWM8SF FLATHEAD-HUNGRY HORSE DAM05-13-2024INFLOW (KAF)1016135775
6CFMM8FLATHEAD-AT COLUMBIA FALLS05-13-2024DISCHARGE (KAF)2820336184
7DLGM8CLARK FORK-AT DEER LODGE05-13-2024DISCHARGE (KAF)176128
8DRMM8CLARK FORK-NR DRUMMOND05-13-2024DISCHARGE (KAF)7517942
9RCCM8ROCK CREEK-NEAR CLINTON05-13-2024DISCHARGE (KAF)13720666
10BONM8BLACKFOOT-NEAR BONNER05-13-2024DISCHARGE (KAF)24754845
11ABOM8CLARK FORK-ABOVE MISSOULA05-13-2024DISCHARGE (KAF)47899748
12BITM8BITTERROOT-NEAR MISSOULA05-13-2024DISCHARGE (KAF)59288367
13BELM8CLARK FORK-BELOW MISSOULA05-13-2024DISCHARGE (KAF)1070191756
14STRM8ST. REGIS-NEAR ST. REGIS05-13-2024DISCHARGE (KAF)10415070
15SRGM8CLARK FORK-AT ST REGIS05-13-2024DISCHARGE (KAF)1457249858
16KERM8FLATHEAD-SELI’Š KSANKA QLISPE’ DAM05-13-2024INFLOW (KAF)3147403678
17NOXM8CLARK FORK-NOXON RAPIDS DAM05-13-2024INFLOW (KAF)4424665666
18CABI1CLARK FORK-CABINET GORGE DAM05-13-2024INFLOW (KAF)4841729866
19PRTI1PRIEST-NEAR PRIEST RIVER05-13-2024DISCHARGE (KAF)28849758
20ALFW1PEND OREILLE-ALBENI FALLS DAM05-13-2024INFLOW (KAF)5394788568
21HOPI1PEND OREILLE-LAKE PEND OREILLE NR HOPE05-13-2024LAKE ELEVATION (FT)MMM
22COEI1COEUR D ALENE-COEUR D ALENE LAKE05-13-2024INFLOW (KAF)553108751
23SPOW1SPOKANE-AT SPOKANE05-13-2024DISCHARGE (KAF)582119749
24LLKW1SPOKANE-AT LONGLAKE05-13-2024INFLOW (KAF)727139252
25SATI1ST MARIES-NEAR SANTA05-13-2024DISCHARGE (KAF)244750
26SJMI1ST JOE-AT ST MARIES05-13-2024STAGE (FT)MMM
27CIBW1COLUMBIA-AT INTL BOUNDARY05-13-2024DISCHARGE (KAF)225422966376
28LAUW1KETTLE-AT LAURIER05-13-2024DISCHARGE (KAF)680116558
29GCDW1COLUMBIA-GRAND COULEE DAM05-13-2024INFLOW (KAF)239952996380
30CHJW1COLUMBIA-CHIEF JOSEPH DAM05-13-2024INFLOW (KAF)224192853479
31TONW1OKANOGAN-NEAR TONASKET05-13-2024DISCHARGE (KAF)469116640
32PATW1METHOW-NEAR PATEROS05-13-2024DISCHARGE (KAF)41864565
33WELW1COLUMBIA-WELLS DAM05-13-2024INFLOW (KAF)233263050176
34CHDW1CHELAN-LAKE CHELAN DAM05-13-2024INFLOW (KAF)49879762
35RRHW1COLUMBIA-ROCKY REACH DAM05-13-2024INFLOW (KAF)237273139876
36ARDW1ENTIAT-NEAR ARDENVOIR05-13-2024DISCHARGE (KAF)12315679
37PESW1WENATCHEE-AT PESHASTIN05-13-2024DISCHARGE (KAF)83999884
38WANW1COLUMBIA-WANAPUM DAM05-13-2024INFLOW (KAF)245823241576
39PRWW1COLUMBIA-PRIEST RAPIDS DAM05-13-2024INFLOW (KAF)245333252075
40KEDW1YAKIMA-KEECHELUS LAKE05-13-2024INFLOW (KAF)466868
41KADW1KACHESS-KACHESS DAM05-13-2024INFLOW (KAF)365861
42EASW1YAKIMA-AT EASTON05-13-2024DISCHARGE (KAF)758490
43CLUW1CLE ELUM-CLE ELUM LAKE05-13-2024INFLOW (KAF)18225671
44TNAW1TEANAWAY-BELOW FORKS05-13-2024DISCHARGE (KAF)405573
45UMTW1YAKIMA-AT UMTANUM05-13-2024DISCHARGE (KAF)64282178
46BUDW1BUMPING-BUMPING LAKE DAM05-13-2024INFLOW (KAF)677688
47CLFW1NACHES-NEAR CLIFFDEL05-13-2024DISCHARGE (KAF)20725382
48RILW1TIETON-RIMROCK LAKE NEAR RIMROCK05-13-2024INFLOW (KAF)12614786
49NACW1NACHES-NEAR NACHES05-13-2024DISCHARGE (KAF)34438390
50PARW1YAKIMA-NEAR PARKER05-13-2024DISCHARGE (KAF)16531952
51KIOW1YAKIMA-AT KIONA05-13-2024DISCHARGE (KAF)46858580
52IPDI1HENRYS FORK-ISLAND PARK DAM05-13-2024INFLOW (KAF)14316885
53CHEI1FALL RIVER-NEAR CHESTER05-13-2024DISCHARGE (KAF)19524380
54ANTI1HENRYS FORK-AT ST. ANTHONY05-13-2024DISCHARGE (KAF)35946977
55TEAI1TETON-NEAR ST. ANTHONY05-13-2024DISCHARGE (KAF)381319119
56REXI1HENRYS FORK-AT REXBURG05-13-2024DISCHARGE (KAF)47654288
57JLKW4SNAKE-JACKSON LAKE AT DAM05-13-2024INFLOW (KAF)623605103
58JKSW4SNAKE-NEAR JACKSON05-13-2024DISCHARGE (KAF)17111557110
59ALPW4SNAKE-NEAR ALPINE05-13-2024DISCHARGE (KAF)20911910109
60PLDI1SF SNAKE-PALISADES DAM05-13-2024INFLOW (KAF)29032521115
61HEII1SNAKE-NEAR HEISE05-13-2024DISCHARGE (KAF)31492914108
62RIDI1WILLOW CREEK-RIRIE DAM05-13-2024INFLOW (KAF)4118226
63SIFI1SNAKE-AB EAGLE ROCK NR IDAHO FALLS05-13-2024DISCHARGE (KAF)22311914117
64SHYI1SNAKE-NEAR SHELLEY05-13-2024DISCHARGE (KAF)20361712119
65SNAI1SNAKE-AT BLACKFOOT05-13-2024DISCHARGE (KAF)14031039135
66BFTI1SNAKE-NEAR BLACKFOOT05-13-2024DISCHARGE (KAF)14251002142
67PIHI1PORTNEUF-AT POCATELLO05-13-2024DISCHARGE (KAF)6127222
68AFRI1SNAKE-AMERICAN FALLS RESERVOIR05-13-2024INFLOW (KAF)20021533131
69MILI1SNAKE-AT MILNER05-13-2024DISCHARGE (KAF)35348729
70HOTI1BRUNEAU-NEAR HOT SPRINGS05-13-2024DISCHARGE (KAF)939993
71SWAI1SNAKE-BELOW SWAN FALLS05-13-2024DISCHARGE (KAF)20301667122
72HWRI1BIG LOST-AT HOWELL RANCH NEAR CHILLY05-13-2024DISCHARGE (KAF)161122132
73MACI1BIG LOST-MACKAY RESERVOIR NEAR MACKAY05-13-2024INFLOW (KAF)14392155
74HALI1BIG WOOD-AT HAILEY05-13-2024DISCHARGE (KAF)157156101
75MAGI1BIG WOOD-MAGIC DAM05-13-2024INFLOW (KAF)105105101
76LWRI1LITTLE WOOD-LITTLE WOOD DAM05-13-2024INFLOW (KAF)353696
77OWYO3OWYHEE-OWYHEE DAM05-13-2024INFLOW (KAF)173109159
78ARAI1SF BOISE-ANDERSON RANCH DAM05-13-2024INFLOW (KAF)18726970
79LUCI1BOISE-LUCKY PEAK DAM05-13-2024INFLOW (KAF)89196293
80BIGI1BOISE-AT GLENWOOD BRIDGE05-13-2024DISCHARGE (KAF)315269117
81PARI1BOISE-NEAR PARMA05-13-2024DISCHARGE (KAF)284233122
82WRMO3MALHEUR-WARM SPRINGS DAM05-13-2024INFLOW (KAF)1815120
83BERO3MALHEUR-AGENCY VALLEY DAM05-13-2024INFLOW (KAF)202484
84BULO3BULLY CREEK-BULLY CREEK DAM05-13-2024INFLOW (KAF)1MM
85CSDI1NF PAYETTE-CASCADE DAM05-13-2024INFLOW (KAF)25429387
86DEDI1DEADWOOD-NEAR LOWMAN05-13-2024INFLOW (KAF)708582
87EMMI1PAYETTE-NEAR EMMETT05-13-2024DISCHARGE (KAF)64285575
88WSRI1WEISER-NEAR WEISER05-13-2024DISCHARGE (KAF)171170101
89WEII1SNAKE-AT WEISER05-13-2024DISCHARGE (KAF)33803062110
90BRNI1SNAKE-BROWNLEE DAM05-13-2024INFLOW (KAF)36133358108
91WHBI1SALMON-AT WHITEBIRD05-13-2024DISCHARGE (KAF)3838420291
92TRYO3GRANDE RONDE-TROY05-13-2024DISCHARGE (KAF)43071960
93ANAW1SNAKE-NEAR ANATONE05-13-2024DISCHARGE (KAF)8119917788
94ORFI1CLEARWATER-AT OROFINO05-13-2024DISCHARGE (KAF)2243278181
95DWRI1NF CLEARWATER-DWORSHAK DAM05-13-2024INFLOW (KAF)978143168
96SPDI1CLEARWATER-AT SPALDING05-13-2024DISCHARGE (KAF)4019482483
97LGDW1SNAKE-LOWER GRANITE DAM05-13-2024INFLOW (KAF)121181434185
98LGSW1SNAKE-LITTLE GOOSE DAM05-13-2024INFLOW (KAF)120841431884
99LMNW1SNAKE-LOWER MONUMENTAL DAM05-13-2024INFLOW (KAF)121061429685
100IHDW1SNAKE-ICE HARBOR DAM05-13-2024INFLOW (KAF)121551430385
101TCHW1WALLA WALLA-NEAR TOUCHET05-13-2024DISCHARGE (KAF)264261
102MCDW1COLUMBIA-MCNARY DAM05-13-2024INFLOW (KAF)372604810677
103GIBO3UMATILLA-NEAR GIBBON05-13-2024DISCHARGE (KAF)252790
104PDTO3UMATILLA-AT PENDLETON05-13-2024DISCHARGE (KAF)394292
105MYKO3MCKAY CREEK-NEAR PILOT ROCK05-13-2024DISCHARGE (KAF)3566
106UMAO3UMATILLA-NEAR UMATILLA05-13-2024DISCHARGE (KAF)323884
107MONO3NF JOHN DAY-AT MONUMENT05-13-2024DISCHARGE (KAF)16121575
108SERO3JOHN DAY-AT SERVICE CK05-13-2024DISCHARGE (KAF)25830983
109JDAO3COLUMBIA-JOHN DAY DAM05-13-2024INFLOW (KAF)382994818179
110MODO3DESCHUTES-AT MOODY NR BIGGS05-13-2024DISCHARGE (KAF)1125115098
111TDAO3COLUMBIA-THE DALLES DAM05-13-2024INFLOW (KAF)386514837880
112PITW1KLICKITAT-NEAR PITT05-13-2024DISCHARGE (KAF)29931296
113HODO3HOOD-NEAR TUCKER BRIDGE05-13-2024DISCHARGE (KAF)13113696
114UNDW1WHITE SALMON-NEAR UNDERWOOD05-13-2024DISCHARGE (KAF)19422686
115BONO3COLUMBIA-BONNEVILLE DAM05-13-2024INFLOW (KAF)392964990979